Theta_e
332 332 335 346 346 347 347 347 346 346 345 344 343 342 343 342 345 344 345 345 345 345 344 343 343 342 342 342 342 343 343 343 342 342 344 345 347 347 347 347 345 343 342 342 343 344 344 345 344 343 342 341 341 340 341 341 340 340 340 340 340 339 338 339 339 339 339 338 337 337 337 338 338 338 338 337 337 336 334 333 334 331 329 332 337
333 334 338 344 346 347 346 347 346 346 345 343 342 341 341 341 341 341 342 343 343 344 347 347 344 342 343 344 344 343 343 343 342 342 344 347 347 347 346 346 344 342 342 341 342 344 344 344 343 342 342 341 341 340 341 342 339 338 339 339 338 338 338 337 337 338 338 339 339 337 338 338 338 337 337 337 337 339 337 335 334 329 328 332 333
337 339 342 344 346 346 346 346 346 345 344 343 342 341 340 339 339 339 340 341 342 345 345 344 344 345 345 344 344 344 344 347 347 347 347 347 347 346 346 346 343 342 342 342 342 343 342 342 342 341 341 341 341 342 342 341 338 337 337 337 337 336 336 337 337 337 337 337 337 336 337 339 338 337 337 336 336 337 336 336 336 335 330 333 332
339 341 342 344 346 346 347 346 344 343 341 340 340 340 339 339 339 340 340 341 342 345 344 345 345 345 344 344 344 344 343 344 344 346 347 346 346 345 345 344 343 342 340 339 341 342 342 341 341 341 341 341 341 341 341 340 338 337 337 336 336 335 336 336 335 336 335 335 334 332 332 328 333 337 338 338 337 336 335 333 335 336 335 334 335
340 342 343 343 344 346 347 345 343 342 341 340 340 339 340 340 340 340 341 342 342 344 345 345 344 343 343 344 344 343 344 346 346 347 347 346 345 344 343 344 344 343 342 340 338 340 340 340 340 341 341 341 341 341 340 340 338 337 337 337 336 335 334 334 335 334 334 334 332 330 324 326 328 335 337 338 338 335 334 333 335 336 335 335 334
341 342 343 343 343 344 346 345 343 343 341 340 340 340 341 341 339 338 338 339 341 344 343 342 342 342 343 343 342 347 347 346 347 347 346 346 345 345 344 343 343 343 342 341 340 338 338 339 339 340 341 340 341 340 339 339 338 337 337 336 335 335 334 334 334 333 333 332 330 324 323 324 326 329 335 335 336 335 334 334 334 335 334 335 336
341 342 341 341 340 342 345 345 343 343 341 340 339 338 341 340 340 341 340 339 340 341 341 341 343 344 343 343 341 342 344 346 347 347 346 346 345 344 345 344 343 343 342 342 341 339 338 339 339 340 341 340 340 340 339 338 339 337 336 336 335 334 334 334 333 333 331 326 321 320 321 323 325 328 335 335 336 335 334 335 334 335 334 334 335
341 340 339 339 339 342 343 344 343 341 340 339 340 337 338 339 338 340 341 340 341 340 340 343 342 341 342 341 342 344 346 346 346 346 346 345 344 343 342 341 341 341 341 341 341 340 339 339 340 340 340 340 339 340 338 337 337 336 336 335 334 334 334 333 332 332 330 322 320 321 322 322 325 328 335 335 334 334 335 335 334 334 334 333 333
339 339 339 338 339 342 343 343 343 342 340 340 339 339 339 338 339 340 341 341 340 338 339 341 342 342 342 344 345 346 346 346 346 346 344 343 343 341 341 341 340 341 340 340 340 340 338 339 340 339 340 340 339 339 338 336 335 335 335 334 333 334 333 333 331 328 324 321 321 322 323 323 326 327 334 334 334 334 334 333 334 333 332 334 333
338 337 337 337 338 341 342 342 343 342 341 340 339 339 338 337 338 340 340 339 339 338 340 341 343 342 344 346 346 346 346 345 346 344 343 342 341 339 339 339 340 340 339 339 339 338 339 339 339 339 339 339 338 338 337 336 334 333 333 333 334 334 333 332 330 328 322 322 322 322 327 334 324 329 334 336 334 334 334 332 334 334 333 332 331
336 336 336 336 336 341 343 344 344 343 340 339 339 339 339 338 338 336 337 338 338 338 338 341 341 342 345 346 346 345 345 345 344 343 342 342 341 341 341 340 340 340 339 339 339 339 339 338 338 338 338 338 338 337 337 337 336 334 334 334 334 334 333 331 327 322 322 322 324 323 327 334 321 325 333 335 334 333 335 335 334 333 333 332 332
336 334 335 334 342 339 342 343 343 343 342 341 340 339 338 338 337 336 336 339 338 337 338 339 340 341 341 345 345 345 344 344 344 343 343 343 341 341 339 339 340 340 338 338 337 338 338 338 338 338 338 337 337 337 337 337 336 335 335 335 334 333 332 330 323 321 321 322 324 326 325 326 325 329 334 333 333 333 333 333 333 333 333 332 332
334 334 333 333 335 339 341 342 342 343 344 342 340 339 339 337 336 339 339 340 339 339 339 339 340 341 341 344 344 344 344 344 343 343 342 340 340 340 340 340 340 338 338 338 337 337 337 337 337 337 336 336 337 336 336 336 336 336 334 334 333 332 330 327 320 320 321 322 324 324 326 329 330 334 332 334 334 334 334 333 333 332 332 333 333
331 330 331 333 332 343 338 340 341 343 344 344 342 340 339 337 337 340 340 341 342 341 340 340 341 341 341 342 343 343 343 343 342 342 341 340 340 339 340 339 339 337 337 337 336 335 336 336 336 336 336 336 336 336 336 335 334 334 334 333 332 331 329 327 325 317 320 321 324 325 326 330 333 335 334 334 334 334 333 333 332 332 332 333 333
331 329 331 332 333 335 340 338 340 340 342 343 342 341 339 338 338 339 342 341 341 341 341 341 341 341 342 342 342 343 343 342 341 341 341 340 339 339 339 339 338 338 338 338 336 336 335 335 335 335 335 335 335 335 335 334 334 334 333 332 330 329 326 319 319 316 319 322 322 324 325 328 336 337 335 334 332 332 332 332 332 335 334 334 334
330 330 330 330 331 332 332 339 336 336 338 340 340 340 341 340 341 341 342 341 341 341 341 341 341 341 342 342 342 342 341 341 341 341 341 340 340 339 339 339 338 337 337 336 336 335 334 334 334 334 334 334 334 334 334 333 333 333 333 332 329 327 324 320 317 315 315 319 320 322 323 326 336 337 336 334 332 333 336 336 335 335 335 335 334
331 329 331 328 327 328 329 331 333 334 334 335 336 337 340 342 342 342 342 342 342 341 341 340 340 340 342 342 342 342 341 341 341 341 341 340 339 339 338 337 337 337 336 336 336 335 334 334 333 333 334 333 333 333 333 333 333 333 331 329 329 326 323 321 317 314 316 319 320 321 323 324 335 336 336 336 336 336 335 335 335 335 334 334 334
330 331 330 329 329 331 333 330 329 331 331 332 332 335 338 341 341 341 342 342 341 341 341 342 342 341 341 341 342 342 341 341 341 341 340 339 338 337 338 337 337 336 336 336 336 335 334 333 333 333 333 333 333 333 333 333 333 333 329 327 327 325 323 321 315 314 317 322 316 319 320 332 335 335 336 336 336 336 335 336 335 334 334 334 334
330 330 331 330 331 332 333 330 326 327 328 328 327 330 333 337 339 339 340 340 341 340 340 339 338 339 338 338 338 337 337 337 338 338 337 336 335 334 336 337 336 336 335 336 335 334 334 333 332 333 333 333 333 333 333 333 333 329 325 324 322 322 320 318 313 313 315 314 316 315 319 333 333 334 334 336 335 335 335 334 335 334 334 335 334
331 331 331 331 331 332 332 331 325 325 326 327 327 329 331 331 334 336 336 337 338 337 335 334 332 332 332 332 330 329 330 330 330 331 332 336 334 330 333 336 336 335 335 335 335 333 333 333 333 332 333 333 332 331 331 331 330 328 324 322 319 318 314 313 313 315 314 316 319 313 325 333 333 334 334 334 335 335 334 334 334 334 334 334 335
331 331 331 331 331 332 332 330 325 325 326 327 329 328 330 329 330 330 332 334 334 333 332 327 325 324 325 324 325 324 324 326 327 327 326 326 325 327 331 335 335 335 334 334 334 333 333 332 332 332 332 332 328 328 325 327 328 327 324 320 317 314 313 314 316 317 314 314 317 312 329 334 332 334 334 334 334 335 334 334 335 335 334 334 335
328 330 331 331 331 332 332 331 328 325 325 328 328 328 327 329 327 326 329 330 329 328 326 326 328 323 322 323 323 324 323 321 324 329 322 324 325 325 329 334 335 334 335 334 334 333 332 332 331 331 332 328 320 311 313 318 322 324 321 317 312 313 312 315 318 318 316 315 316 317 331 332 332 333 334 333 334 334 333 334 335 334 334 334 334
325 328 330 331 331 331 333 332 330 325 325 326 329 328 327 326 325 326 328 326 328 326 324 324 322 322 321 321 321 321 320 321 323 324 323 320 324 324 328 331 333 332 334 333 333 332 332 331 331 332 331 324 314 311 312 312 313 318 317 314 312 312 312 315 316 318 319 318 315 325 331 331 332 333 334 333 334 333 333 332 334 333 333 334 333
323 326 328 331 331 329 332 333 331 326 326 326 327 328 327 326 325 325 326 325 325 324 322 322 321 321 321 321 321 320 320 321 327 327 325 324 324 322 325 327 329 328 330 330 331 330 331 330 328 327 320 317 315 314 313 312 312 314 314 313 313 313 313 314 315 314 314 316 314 322 330 331 332 332 333 333 333 332 332 331 334 333 333 333 333
321 322 322 327 329 330 331 332 332 327 326 325 327 328 327 326 324 324 324 323 323 322 322 322 321 321 320 321 320 318 319 320 322 323 322 323 322 322 323 325 326 326 325 324 322 320 319 317 316 317 313 314 313 312 311 313 311 311 312 312 312 312 312 314 313 314 317 318 316 323 327 330 331 332 333 332 333 332 332 332 332 332 333 332 332
319 321 322 324 327 328 329 331 333 330 326 325 326 327 327 326 324 324 323 323 323 322 322 322 321 321 320 320 319 319 319 320 319 320 321 321 321 322 322 323 323 324 323 324 321 320 318 316 315 314 314 312 313 313 311 311 313 311 311 310 312 313 313 314 315 315 318 317 314 321 324 328 330 331 332 332 333 332 332 333 333 332 332 331 332
320 322 322 323 325 327 328 329 331 332 327 326 325 326 328 326 325 324 323 323 322 322 322 321 321 321 320 319 320 320 319 319 319 318 319 319 320 320 321 322 322 322 322 322 320 318 317 317 316 315 311 309 311 311 310 310 310 312 311 311 312 316 316 318 316 313 312 311 313 320 325 330 330 330 331 331 331 332 331 332 332 332 331 330 329
318 320 322 323 323 326 328 327 329 332 330 326 325 325 325 325 325 324 324 323 323 323 323 323 322 321 320 321 321 321 321 320 319 317 317 316 319 319 320 320 321 320 322 321 320 318 317 317 316 313 313 312 313 313 313 312 311 310 313 313 311 314 314 313 313 313 311 310 311 317 322 326 328 330 331 329 331 331 330 329 329 331 331 329 330
318 319 321 322 323 326 328 327 327 330 332 329 325 325 325 324 324 323 324 323 323 323 323 323 322 321 321 321 320 320 319 320 319 318 316 317 317 317 318 319 318 319 321 320 319 318 316 315 315 314 312 314 312 314 312 312 311 311 313 315 315 315 312 311 310 310 309 310 311 313 321 323 327 329 330 330 329 328 328 328 328 328 329 327 330
319 320 321 322 323 325 327 327 326 328 331 330 327 324 325 324 324 323 324 322 323 323 322 323 323 322 321 320 321 321 320 320 320 318 317 317 316 316 316 316 317 316 318 319 318 315 315 313 313 314 314 314 313 314 311 314 313 314 313 315 316 320 319 314 309 309 311 311 311 311 318 321 324 328 327 326 325 325 325 326 326 326 325 326 330
321 319 320 322 322 323 326 327 326 325 329 330 329 326 325 325 324 324 323 322 323 323 322 323 323 323 323 321 321 321 321 320 320 319 318 317 317 316 316 316 315 316 317 318 316 316 315 316 316 315 314 314 314 313 313 315 315 315 314 313 317 317 317 312 309 308 310 312 310 310 313 319 322 325 326 323 323 323 323 324 326 325 326 329 330
321 320 320 322 321 323 324 326 326 325 327 329 328 327 325 325 324 324 324 323 322 322 322 322 322 323 322 322 322 321 320 321 321 320 319 319 317 317 316 316 317 317 317 317 316 315 316 316 314 314 313 312 314 313 313 312 314 315 311 312 315 314 313 312 310 309 310 310 310 310 312 313 318 320 323 322 322 322 324 325 326 326 329 331 330
323 322 321 321 321 322 324 325 325 324 326 328 329 328 327 326 325 324 324 323 322 322 322 322 322 323 322 322 322 322 321 321 321 320 319 319 319 318 317 316 317 317 317 317 316 316 315 315 315 313 311 310 312 314 312 309 312 314 310 313 311 313 315 313 310 309 311 311 313 315 314 312 311 316 317 320 322 323 324 326 327 327 330 329 327
323 322 321 320 322 323 324 324 324 323 324 328 328 328 327 327 326 325 324 324 322 322 322 322 322 322 322 322 322 322 321 322 321 320 320 319 319 318 318 318 318 317 317 317 317 316 316 314 316 311 314 313 313 314 312 314 313 311 310 312 310 314 315 313 315 316 316 313 313 316 316 312 310 308 310 317 319 322 324 326 327 328 328 325 323
323 321 321 321 321 322 324 324 322 323 323 326 327 327 327 327 325 325 324 324 323 322 322 321 321 322 322 322 322 322 321 322 321 321 320 319 319 319 319 320 319 318 317 317 318 317 316 316 314 314 314 312 313 314 314 314 313 314 314 309 312 313 311 315 314 315 314 315 315 315 314 313 311 309 309 307 309 312 319 324 326 325 324 323 323
323 323 322 322 321 321 322 323 322 322 322 324 326 327 326 326 325 323 323 323 322 322 322 321 321 321 321 322 321 322 321 322 321 321 321 320 320 319 320 320 319 318 317 317 317 317 316 316 315 315 314 314 313 314 312 313 313 313 312 310 310 309 310 311 312 311 313 313 312 313 314 312 310 308 308 306 304 307 315 320 324 324 323 322 322
324 323 322 321 321 321 321 322 322 322 322 323 324 325 325 324 323 322 323 322 322 322 322 321 321 321 321 321 322 321 321 322 322 321 322 321 320 320 320 320 320 319 318 317 316 317 317 316 315 314 315 316 314 313 313 312 313 313 312 311 312 310 310 313 315 314 313 313 312 312 312 310 309 307 307 304 303 303 309 314 317 318 318 322 322
324 324 323 322 322 321 321 321 323 323 323 322 322 324 324 324 323 322 320 322 321 322 322 321 321 321 321 321 321 322 321 322 322 322 322 322 321 321 321 320 319 319 319 317 317 317 316 316 316 315 315 315 314 313 314 313 311 312 313 311 312 309 311 312 313 310 314 313 311 311 312 311 308 308 307 303 302 301 302 308 312 312 312 316 321
325 324 324 323 323 322 321 320 321 322 323 323 322 322 322 322 321 321 320 321 321 321 321 320 321 321 321 321 321 322 321 322 322 322 321 321 321 321 321 320 319 319 318 318 317 316 315 315 316 316 314 315 317 315 315 313 312 310 311 313 310 310 311 310 311 312 313 314 313 312 310 308 307 306 305 302 301 299 298 297 298 300 304 311 317
325 325 323 323 323 322 321 320 320 322 323 323 322 321 320 319 319 317 318 319 320 320 320 321 321 321 321 321 321 322 322 321 322 322 322 321 321 321 321 320 319 319 318 317 317 317 316 315 315 316 316 313 312 313 310 310 308 307 309 310 308 307 309 309 309 311 312 312 311 309 309 305 304 303 302 301 300 297 296 295 297 297 299 306 310
324 324 323 323 323 323 321 319 320 321 321 321 321 320 319 318 318 319 319 320 320 320 320 321 321 322 321 321 321 322 322 322 321 322 322 320 321 321 321 320 319 318 318 319 319 318 318 317 317 314 315 314 313 311 310 309 309 309 307 308 310 307 307 306 311 312 311 311 308 310 308 306 304 303 302 301 299 295 294 294 294 294 295 295 298
323 324 323 323 323 323 322 321 320 320 321 322 322 321 321 321 320 320 320 321 320 319 320 321 322 322 321 321 321 322 322 322 321 322 322 322 321 321 320 320 319 318 319 320 319 316 317 316 314 313 311 314 314 313 312 313 307 310 306 305 303 308 306 306 308 310 311 310 310 309 307 307 305 302 301 300 298 295 294 293 291 291 290 291 292
323 323 325 324 323 323 323 323 321 320 321 322 322 321 322 321 321 320 321 319 319 321 321 321 320 321 322 322 321 322 322 322 322 321 322 322 322 321 321 321 320 319 318 318 318 317 317 317 316 316 314 308 311 310 312 315 312 301 303 308 307 305 304 303 305 306 308 308 307 308 307 307 307 304 302 301 299 295 295 293 290 289 289 289 291
322 323 324 324 324 323 324 323 322 321 321 321 320 322 322 322 321 320 319 321 319 318 318 318 319 320 321 322 322 322 322 322 322 322 321 323 322 322 322 320 321 319 319 319 318 318 318 317 317 316 316 314 309 312 311 313 313 311 307 311 305 303 304 301 301 304 305 307 307 307 306 307 306 303 301 301 299 297 296 294 291 290 290 290 290
322 323 323 324 325 324 324 324 324 322 321 320 320 321 319 317 317 315 314 314 315 314 315 318 319 320 320 321 322 322 322 322 322 322 321 322 322 322 322 321 320 320 319 319 319 319 319 319 318 317 316 316 314 310 308 311 313 316 314 306 304 303 305 300 299 303 302 304 304 306 306 307 305 304 301 300 298 297 297 295 293 290 290 290 290
322 323 324 325 325 325 324 324 325 324 322 321 320 320 319 319 317 317 316 316 316 316 316 318 319 319 320 322 319 321 321 321 322 321 321 320 322 322 321 321 320 319 318 319 319 319 318 318 318 318 317 316 317 311 309 306 313 313 315 317 314 311 303 300 303 299 298 303 302 304 305 304 304 303 302 300 298 298 297 297 294 291 290 290 289
321 323 324 324 324 325 324 324 325 324 324 322 320 319 319 319 319 319 319 318 317 318 320 320 319 320 320 320 321 319 321 321 321 321 321 320 320 321 321 321 320 319 318 318 318 318 318 318 318 318 318 317 315 315 314 312 308 311 313 313 310 305 307 307 306 298 299 302 303 302 303 302 302 302 302 302 300 299 298 297 296 291 290 289 289
320 322 323 324 324 324 324 324 325 323 325 324 321 320 320 320 319 319 319 319 319 319 319 320 318 316 319 320 319 319 319 321 321 321 321 321 319 320 320 320 320 319 317 317 318 318 317 317 317 318 318 318 317 316 316 313 313 312 311 313 312 309 305 306 307 310 307 299 303 303 301 302 301 301 302 302 301 300 299 298 297 292 290 289 288
318 320 322 323 324 324 324 324 324 324 324 324 322 321 320 321 320 320 319 319 320 320 315 315 318 317 318 318 319 319 319 319 321 321 321 321 319 320 320 320 320 319 316 317 317 317 317 317 316 316 317 318 318 318 318 317 314 315 310 312 313 313 311 309 307 307 307 304 304 305 302 297 299 300 300 301 301 301 300 300 299 294 291 289 288
317 319 321 322 323 323 323 322 323 324 324 324 323 322 321 320 320 320 319 320 319 318 314 316 316 316 318 318 318 319 319 319 320 321 321 321 321 320 320 321 320 320 317 318 318 318 319 319 320 320 320 320 320 319 319 320 319 318 318 317 314 313 312 310 308 307 304 305 306 303 305 300 298 300 300 299 299 299 300 300 298 295 292 290 288
313 316 319 320 321 322 322 321 323 324 323 323 323 323 322 321 321 321 320 320 320 318 317 317 317 315 318 318 318 319 319 320 320 321 322 322 322 322 321 322 322 322 321 322 322 321 321 321 321 321 321 321 321 321 319 319 320 319 319 318 318 316 315 313 312 311 310 302 302 302 305 303 304 302 299 299 298 299 299 299 297 295 293 291 289
Wind_Speed
4 3 1 7 10 9 13 13 13 12 12 11 9 9 8 7 10 9 9 10 11 11 10 10 9 10 11 12 12 12 13 13 14 13 14 15 16 17 17 16 18 17 17 17 17 17 17 17 17 17 17 16 16 15 15 17 17 16 17 17 18 18 18 17 16 15 15 15 18 17 18 17 18 18 18 18 17 15 11 11 9 8 7 13 17
5 3 2 5 10 7 12 13 13 13 12 11 10 10 9 8 8 8 7 8 9 9 12 12 11 10 11 12 12 12 13 14 14 14 15 15 15 16 17 18 17 17 17 17 17 17 16 16 16 16 16 16 15 16 17 17 16 16 17 17 17 17 17 16 16 16 16 14 14 17 19 18 19 18 18 18 18 18 13 12 11 7 6 15 15
6 4 3 6 10 9 12 13 13 13 12 11 10 9 8 8 9 8 7 7 8 11 11 12 11 11 12 12 12 12 13 13 12 13 15 16 16 16 17 17 16 16 16 16 16 16 16 16 16 16 16 16 16 16 17 18 16 16 16 16 16 16 16 16 16 16 15 14 15 14 12 18 18 17 17 17 17 18 15 15 16 15 10 17 14
8 5 5 7 8 9 11 13 13 13 12 11 11 10 9 9 9 9 9 8 11 11 11 13 11 12 12 12 11 11 11 13 13 14 15 15 16 16 16 16 16 16 16 16 16 15 15 15 15 15 16 16 16 16 17 17 16 16 17 17 16 15 16 15 15 15 15 14 13 10 6 5 10 17 18 17 17 17 13 15 18 18 17 15 18
8 6 6 6 6 8 11 13 13 13 13 12 11 11 11 10 9 9 9 9 10 10 13 13 12 13 12 11 11 11 12 12 12 14 14 16 16 15 16 15 15 15 15 15 15 15 15 15 15 15 15 15 15 16 16 16 16 16 16 16 15 15 15 15 15 15 14 13 12 8 6 7 6 15 16 17 17 15 12 13 17 16 16 15 16
9 7 7 5 4 7 11 12 14 14 13 12 12 12 11 11 10 9 9 9 11 12 12 12 11 12 12 11 11 13 12 12 13 14 14 15 15 15 15 15 14 14 14 14 14 14 14 14 14 14 15 15 15 16 15 16 16 15 16 16 15 15 14 14 14 13 12 11 9 5 5 4 4 7 16 16 16 13 14 15 16 15 16 17 17
10 6 6 4 4 7 11 13 14 14 14 13 12 10 12 11 11 12 11 9 9 10 11 11 11 11 11 11 10 11 13 13 13 13 13 15 16 16 15 14 14 14 13 13 13 13 13 13 13 13 14 15 15 16 16 16 15 15 15 16 16 15 14 13 12 12 11 6 5 4 5 4 3 5 15 14 15 15 15 15 15 16 15 14 15
7 6 5 5 5 8 11 13 13 14 13 12 13 11 11 11 9 11 11 10 9 9 11 11 11 11 10 10 11 11 12 13 14 14 15 15 15 15 14 13 13 13 12 12 13 13 12 13 13 13 13 14 15 15 15 15 14 14 14 14 15 14 13 12 11 10 9 5 4 4 5 4 4 5 15 14 15 16 15 15 15 16 14 14 11
7 6 6 5 6 11 11 11 14 14 13 12 12 12 12 11 11 10 11 11 10 10 10 11 11 10 11 10 11 11 12 12 13 14 14 14 14 14 14 13 12 12 12 12 12 12 12 12 12 13 13 14 14 14 14 14 13 14 14 14 14 13 12 11 10 9 5 4 4 5 4 4 5 5 12 14 14 13 12 11 12 13 13 12 15
6 5 5 5 6 10 11 11 14 14 14 13 12 12 12 10 11 11 11 11 10 10 10 12 11 10 10 11 11 12 12 13 13 13 14 14 13 13 13 12 12 12 12 12 12 12 12 12 12 12 13 13 14 14 13 13 13 14 15 14 13 12 11 10 10 6 4 4 5 5 5 6 3 4 10 13 13 14 7 4 5 5 6 12 12
5 5 4 4 5 10 11 11 12 13 14 13 12 11 11 11 10 10 11 11 11 11 10 11 11 12 12 12 13 13 13 13 14 13 13 13 13 13 13 13 12 12 11 11 11 12 12 12 12 12 12 12 13 13 13 13 12 13 13 13 12 10 10 9 7 5 5 5 6 5 6 8 3 2 10 11 11 10 8 9 10 10 11 11 11
5 4 4 3 9 10 10 9 9 12 12 13 12 12 11 10 11 11 10 10 10 10 9 10 11 11 11 11 11 12 12 12 12 13 12 13 13 13 12 12 12 12 11 11 11 11 11 11 11 11 11 12 12 12 13 12 12 12 11 11 10 9 9 9 5 5 5 6 6 6 6 5 5 6 11 10 10 9 9 9 10 9 10 10 10
4 3 4 4 4 7 8 8 8 9 10 11 12 11 11 10 9 11 11 11 11 10 8 7 9 9 9 11 11 11 11 11 12 12 12 12 12 12 12 11 12 11 11 11 11 10 11 11 11 11 11 11 11 11 12 13 12 11 10 10 9 8 8 7 4 5 5 5 5 6 6 6 5 8 9 9 9 9 9 9 9 9 9 9 9
3 2 2 3 3 6 7 8 8 8 8 7 10 10 11 10 9 12 10 10 10 9 8 9 9 9 10 9 10 11 11 12 12 12 12 11 11 11 11 10 11 11 10 10 10 10 10 10 10 10 10 10 10 10 11 12 13 11 10 9 8 7 6 5 5 4 4 5 4 5 6 6 6 10 8 8 8 8 7 7 8 7 8 7 7
5 2 1 1 2 3 5 8 8 7 7 6 8 8 9 10 9 9 10 10 9 9 9 9 9 9 10 10 9 10 11 11 11 11 11 11 11 10 11 11 11 10 10 10 9 9 9 9 9 9 9 8 9 9 9 11 12 11 10 8 7 5 5 3 3 3 4 3 3 4 5 5 9 11 7 7 7 6 5 4 7 9 9 10 9
4 4 2 1 1 1 1 5 8 7 6 7 6 7 8 8 8 10 10 11 10 9 9 10 11 9 9 10 10 11 11 11 11 10 9 10 11 11 10 10 11 10 9 8 8 8 8 8 8 8 8 8 7 8 8 9 11 10 9 7 6 5 5 4 4 3 4 4 3 3 3 4 10 9 9 7 6 7 8 9 7 8 8 8 8
6 5 4 2 2 2 2 1 3 7 7 6 6 6 7 6 9 10 8 9 10 10 10 10 10 9 9 9 9 9 9 10 10 10 8 10 11 10 9 10 10 9 8 8 8 7 7 7 7 7 7 7 7 7 7 8 8 9 8 7 6 5 5 4 4 3 3 3 3 4 5 3 6 8 6 6 6 6 7 8 8 8 8 7 7
5 6 6 5 5 2 1 1 2 4 4 5 6 6 5 6 9 8 9 8 9 9 9 6 8 11 9 7 6 8 10 9 9 8 8 9 8 8 8 9 9 9 8 8 7 6 6 6 5 6 6 6 6 6 7 7 8 10 9 8 6 5 5 4 3 2 2 2 3 2 3 5 4 5 6 7 7 7 7 7 8 7 7 7 7
6 5 5 6 6 5 4 1 2 4 4 4 3 3 6 7 8 8 9 7 7 9 8 9 9 9 9 8 8 9 8 9 8 7 7 7 7 8 8 8 9 8 8 7 6 5 5 4 4 4 4 5 6 6 6 7 7 9 10 8 6 5 5 4 2 2 1 1 1 2 3 7 7 2 4 5 5 7 6 8 8 8 7 7 6
8 7 6 5 6 5 5 3 2 3 4 3 3 3 5 6 7 8 8 9 10 10 9 8 9 9 9 9 9 7 7 6 8 6 7 8 7 6 7 7 8 8 7 6 6 5 4 3 2 3 3 5 6 6 6 6 6 6 9 6 4 4 2 2 2 0 0 0 1 2 4 6 8 8 7 5 6 7 7 7 7 7 7 7 7
5 7 7 6 6 6 6 5 3 4 4 4 4 4 4 6 6 7 9 10 10 9 9 9 9 8 8 8 7 5 4 4 5 4 6 4 6 7 7 7 7 7 6 6 5 4 3 2 1 2 3 4 5 5 6 6 6 6 6 4 4 4 1 2 1 0 1 1 0 2 4 5 7 8 7 6 5 7 7 7 7 6 6 6 6
7 8 7 7 7 7 7 6 5 4 4 4 3 3 4 5 4 4 5 7 8 8 7 5 6 4 7 6 4 4 4 4 4 5 4 3 4 7 6 7 6 5 5 5 5 4 3 2 0 1 3 5 5 3 4 5 6 6 6 5 2 1 1 1 1 2 2 2 1 3 4 5 6 7 7 6 5 5 6 6 6 5 5 5 5
7 7 7 9 7 6 7 7 6 5 4 4 4 5 4 4 4 4 4 6 6 5 5 4 4 5 4 4 4 3 3 3 4 4 4 3 3 6 7 7 7 6 4 4 3 3 2 2 1 3 5 5 3 2 2 3 4 6 5 3 2 1 0 2 2 3 4 3 1 3 4 4 5 6 7 6 5 5 5 5 5 4 4 5 5
10 8 8 7 7 7 8 8 7 5 6 5 4 5 4 4 4 4 5 4 5 5 4 4 4 4 5 4 4 3 3 3 4 7 6 3 3 4 3 5 7 6 5 2 1 2 3 5 5 4 3 2 1 2 2 3 3 3 3 2 1 0 1 3 4 2 2 2 3 3 5 4 5 5 6 5 4 4 4 4 5 3 5 5 6
6 5 5 8 9 8 7 7 7 6 6 5 5 5 4 4 4 4 5 4 4 4 5 4 4 4 4 4 4 3 3 3 4 3 3 3 2 1 1 2 2 2 2 2 1 1 2 1 2 2 1 1 2 2 2 3 2 2 3 2 1 0 1 2 2 4 4 3 2 3 4 4 5 5 6 5 4 3 4 5 3 2 5 4 6
5 7 9 7 8 8 8 7 7 7 6 6 6 5 5 5 4 5 5 4 5 5 4 4 4 4 4 4 4 4 3 4 3 3 3 3 3 3 2 2 2 2 2 2 2 1 1 1 2 2 3 1 2 4 2 3 3 3 2 2 2 1 2 3 3 3 3 4 2 3 3 5 5 5 6 5 3 3 3 4 3 2 3 5 5
9 10 7 7 8 8 8 8 8 7 7 6 5 5 5 5 5 5 5 5 4 5 5 4 4 4 4 4 5 4 4 4 4 3 4 3 3 3 3 3 3 3 2 2 2 1 2 2 2 3 3 3 4 4 3 3 3 3 3 3 3 3 2 2 3 2 2 1 1 3 4 4 4 4 5 3 3 3 2 3 3 1 3 4 4
5 6 6 7 8 10 9 8 9 8 8 6 6 6 5 5 6 5 5 6 6 5 5 5 4 5 4 5 5 5 5 4 4 4 4 3 4 4 4 3 3 4 3 2 3 2 1 2 2 3 4 3 4 4 5 3 4 2 3 4 3 4 4 3 2 2 2 3 2 2 2 4 4 5 6 3 3 3 3 3 3 3 3 2 5
8 8 7 8 9 9 9 10 9 10 8 7 7 6 5 5 5 5 6 6 6 6 6 5 5 5 4 5 4 5 4 4 5 5 3 4 4 4 4 4 3 4 3 4 3 4 3 3 3 5 3 4 4 5 4 4 3 3 4 4 4 4 3 2 2 2 2 3 2 3 3 4 3 5 4 4 3 3 3 3 4 1 1 2 7
11 9 8 9 8 8 10 11 10 10 9 8 7 7 7 7 7 6 6 6 6 6 5 5 5 5 5 4 5 5 5 5 5 4 5 5 4 4 4 4 5 4 4 5 5 4 5 3 4 4 5 5 4 6 3 4 3 3 4 5 4 4 5 3 2 3 3 3 3 3 3 3 4 1 3 2 3 2 3 4 3 3 2 4 8
9 9 9 8 7 8 10 10 9 9 8 9 9 9 8 8 8 7 6 6 6 6 5 6 5 5 6 5 5 5 6 5 5 5 5 5 4 4 5 5 5 5 5 5 3 5 4 5 5 5 5 5 5 5 4 5 5 5 4 3 6 4 5 2 1 2 3 3 2 2 1 2 1 3 2 1 2 3 3 3 4 3 5 7 9
11 11 9 7 7 10 10 10 10 9 10 10 9 9 9 9 8 7 7 7 6 6 6 6 6 6 5 6 6 6 5 6 6 5 6 5 5 5 5 5 6 5 5 5 5 4 4 5 4 4 4 3 5 5 4 4 6 6 4 4 4 4 5 3 1 1 2 2 2 1 0 0 1 3 2 1 2 3 3 4 5 4 7 9 9
9 9 9 8 10 10 10 10 10 9 11 11 9 9 8 7 7 8 7 7 7 6 7 7 6 6 6 6 6 6 6 6 6 6 6 6 6 6 6 6 6 5 5 4 4 4 4 5 6 3 4 3 4 6 4 2 4 5 3 4 3 4 4 3 2 3 3 3 3 2 2 1 0 2 2 2 3 4 4 5 8 4 8 8 7
9 8 8 11 9 7 8 8 9 11 11 10 9 8 8 8 7 7 7 7 7 7 7 6 7 6 6 6 6 7 7 6 6 6 6 6 7 7 7 7 6 5 5 5 5 5 5 5 7 4 6 5 6 6 5 6 6 5 4 4 2 5 4 4 3 4 3 3 3 3 4 3 1 1 0 2 4 5 6 8 11 9 9 7 7
8 8 11 11 10 9 8 8 9 10 10 11 11 10 8 8 8 7 7 8 7 7 7 6 6 7 6 7 7 7 7 8 7 7 7 7 7 7 7 7 6 5 5 5 6 5 5 7 6 6 5 5 5 6 6 6 6 6 6 2 4 4 3 5 2 4 5 5 5 4 3 3 2 1 0 0 4 5 6 8 9 7 7 7 7
13 11 10 9 11 10 9 10 9 11 11 11 11 10 9 9 8 8 7 7 7 7 7 7 7 7 7 7 7 7 7 8 7 7 7 7 7 8 8 7 6 5 6 6 6 6 6 6 6 5 5 6 6 7 5 6 6 6 5 3 4 3 4 3 4 3 3 3 3 3 4 4 3 2 1 0 1 3 7 8 11 9 3 6 7
12 10 10 10 10 11 11 12 12 12 11 11 10 9 8 8 8 8 8 8 8 8 7 7 7 7 7 8 8 8 8 8 8 8 8 8 8 8 7 7 6 7 6 6 6 6 6 6 6 6 6 7 6 6 6 5 6 6 5 4 5 4 4 5 5 4 4 4 4 4 4 4 4 3 2 1 1 2 5 8 8 9 10 4 7
11 12 11 12 13 11 11 12 11 11 11 11 10 9 9 9 8 7 8 8 9 8 7 7 8 7 7 8 8 8 8 8 8 8 8 8 8 8 7 7 6 6 6 6 7 5 5 6 7 6 6 6 6 6 7 5 5 5 6 5 6 4 5 5 4 3 5 5 5 6 6 5 5 5 4 2 2 3 3 5 8 8 8 8 3
10 12 12 11 9 10 10 11 11 10 10 10 10 9 8 7 6 7 7 8 7 7 7 7 8 8 8 9 9 8 8 8 8 8 8 8 7 7 8 7 6 6 6 6 6 6 6 6 7 7 5 7 7 6 7 4 5 4 5 6 4 4 5 4 2 4 5 5 6 6 3 4 4 4 4 3 2 3 3 3 3 4 4 7 8
11 10 12 11 11 10 9 10 11 11 9 9 8 8 7 8 8 5 6 8 7 8 8 8 8 9 9 9 9 9 8 9 9 9 9 8 8 8 8 7 7 6 7 7 7 7 8 7 8 8 8 5 4 5 4 3 3 3 6 6 5 4 5 5 3 4 4 5 5 5 6 4 3 3 3 3 3 3 3 3 3 3 3 4 5
11 11 11 12 13 14 12 13 11 10 10 10 10 10 10 8 7 10 12 9 9 9 9 9 9 9 10 10 9 9 9 9 9 9 9 9 8 8 8 7 6 6 7 9 8 8 8 8 7 5 7 7 5 4 3 1 1 5 3 5 6 4 4 3 5 5 5 5 4 6 5 5 5 5 4 3 3 3 3 3 3 3 3 3 2
12 12 14 16 15 13 13 13 10 11 12 12 11 10 10 11 10 11 9 9 9 9 10 9 10 9 9 10 10 9 10 10 9 9 9 9 9 8 8 8 7 7 8 7 6 6 6 6 5 5 4 8 7 5 4 4 2 5 4 4 3 5 4 3 4 5 5 4 5 6 6 6 6 5 3 3 3 3 3 3 3 3 3 3 2
15 16 16 14 13 13 14 12 11 12 12 12 11 12 10 9 9 8 10 8 6 8 9 8 7 9 10 10 10 10 10 10 10 9 9 9 9 9 8 7 7 7 7 7 7 8 7 8 8 9 6 4 5 2 5 8 6 2 1 1 3 3 5 3 3 4 4 4 5 5 5 6 7 5 5 4 4 4 3 3 4 4 4 4 3
12 11 12 15 13 13 13 13 13 12 12 13 13 11 10 9 8 7 6 8 7 7 6 6 7 9 11 10 10 11 11 10 9 9 9 9 9 10 8 7 8 7 8 9 8 10 8 8 8 9 7 6 4 6 5 7 6 5 3 4 2 1 6 4 4 4 2 4 6 5 4 5 4 4 4 6 6 5 5 4 4 4 4 5 4
13 14 14 14 12 15 15 15 13 13 12 11 12 9 7 5 5 2 1 3 1 3 4 8 10 10 9 10 13 9 9 10 9 10 9 10 9 9 9 8 8 8 8 9 9 10 9 8 9 8 9 10 9 4 4 6 8 7 6 3 2 1 5 4 2 5 0 2 3 4 5 5 6 6 6 5 4 6 6 5 5 4 5 5 5
14 14 13 15 14 13 13 12 11 11 12 13 12 10 10 10 8 9 9 8 9 8 12 15 11 11 13 9 5 9 9 9 9 9 9 9 9 9 9 8 8 8 8 9 8 7 8 8 8 8 9 8 9 5 4 4 7 8 8 9 6 6 2 2 1 4 1 1 2 3 4 4 4 5 5 6 7 7 6 7 6 6 6 5 5
15 12 12 13 13 12 12 13 13 11 11 10 12 11 10 10 14 14 12 12 12 12 11 8 8 8 6 8 8 5 8 9 9 8 8 8 8 8 8 9 8 8 7 8 9 9 8 8 6 7 9 8 6 9 9 6 2 6 7 8 4 3 3 5 7 1 3 1 1 3 3 4 4 4 6 7 7 7 7 6 7 7 6 5 5
13 11 12 11 14 14 13 14 12 12 11 10 12 13 13 13 12 12 11 12 13 14 10 9 5 4 7 8 6 6 6 8 9 8 8 8 8 8 8 8 9 8 7 8 9 8 7 5 7 8 8 7 8 10 9 6 8 6 7 9 8 5 3 3 2 7 6 3 3 0 1 5 5 6 7 8 8 9 8 8 8 7 6 6 5
11 12 13 13 13 14 14 12 12 11 10 12 13 14 14 13 12 11 11 12 12 10 4 4 6 6 7 6 7 7 6 7 8 8 8 9 8 8 8 9 9 9 8 8 7 7 8 7 7 7 8 9 9 10 9 9 8 9 5 7 8 9 8 8 5 5 8 7 5 5 3 0 2 5 8 8 7 8 9 10 9 8 7 7 6
13 12 12 11 12 11 12 12 13 11 11 12 13 14 14 11 11 12 15 14 10 6 4 6 6 6 9 8 6 6 6 6 7 8 8 8 9 8 9 10 10 9 8 9 8 8 8 8 9 9 9 10 9 10 11 10 9 9 10 9 8 7 7 4 3 4 2 4 7 6 7 8 6 9 7 8 10 8 8 7 6 7 8 8 7
8 9 10 11 10 10 12 13 14 12 11 13 13 14 13 12 13 14 16 15 12 9 8 9 7 7 9 8 7 6 6 7 6 7 8 8 8 9 9 10 9 9 9 9 9 9 9 9 9 10 10 11 9 10 11 12 10 10 11 11 12 12 11 12 11 7 7 3 3 4 5 9 12 7 8 10 9 9 8 7 7 8 8 7 6
Wind_Direction
234 185 213 164 148 151 134 124 121 118 113 109 102 97 100 101 108 108 109 103 100 100 103 105 94 83 86 91 92 95 95 93 92 96 103 94 88 86 86 85 82 81 81 81 80 79 80 82 82 80 76 75 74 77 85 83 75 76 78 79 80 82 84 77 59 50 51 62 73 73 74 76 75 72 72 73 73 78 80 71 58 42 46 60 58
176 188 160 149 146 156 132 126 123 119 115 112 110 111 108 100 95 95 98 109 108 95 94 93 96 99 97 97 99 100 103 105 106 107 105 98 97 95 89 84 83 83 82 81 81 81 84 85 85 81 78 77 77 83 88 86 80 79 81 82 83 81 74 63 57 52 52 47 47 62 73 75 76 72 74 73 71 66 62 72 66 63 64 62 58
134 139 140 139 147 168 133 127 121 119 116 112 113 114 118 113 103 109 119 125 117 106 105 93 95 98 99 98 100 101 100 103 100 97 93 97 96 92 88 86 84 85 85 83 83 84 87 88 86 82 79 80 81 86 92 89 85 84 84 83 82 78 69 61 57 55 51 45 40 32 29 71 75 74 70 70 67 62 56 61 70 72 77 71 70
134 142 140 152 158 163 132 125 123 119 115 114 115 114 110 119 125 122 131 135 124 111 104 102 107 104 102 108 109 105 108 110 112 111 107 104 96 93 92 88 87 86 87 87 87 87 87 87 86 81 80 80 83 91 96 93 89 88 86 83 79 74 66 61 59 57 54 51 47 36 35 29 67 72 70 68 67 64 59 61 64 65 66 67 61
137 141 149 155 164 152 129 126 127 123 122 123 122 124 125 115 108 117 121 119 120 109 105 113 112 106 109 108 114 117 114 113 111 106 107 104 100 96 93 91 89 88 87 87 87 86 86 87 85 81 78 81 84 92 99 98 92 89 87 83 78 72 68 65 63 60 56 56 51 48 40 42 44 67 71 71 69 68 65 66 62 60 61 58 60
143 141 153 151 140 135 131 132 134 131 129 132 132 130 127 123 127 125 124 125 125 118 117 118 120 118 119 119 116 115 113 112 116 117 114 106 102 98 93 94 92 91 88 88 87 86 87 87 85 82 78 83 88 92 96 96 95 91 89 86 84 78 72 69 65 61 58 58 56 53 45 43 50 66 72 73 73 69 64 64 65 62 61 59 52
142 146 149 137 132 137 139 143 142 137 138 139 131 137 133 137 135 135 133 125 119 121 122 120 112 115 120 122 124 118 111 113 116 116 114 108 104 100 95 93 93 90 89 89 87 87 87 89 88 83 80 85 88 92 94 94 93 92 91 89 88 88 80 67 60 55 53 47 43 37 31 26 25 69 67 69 71 71 69 69 67 65 61 51 48
141 147 146 141 139 147 148 148 148 142 144 144 139 144 140 128 134 135 132 128 128 134 127 125 127 124 125 128 129 120 114 116 114 110 105 102 98 98 99 96 94 91 89 89 87 87 88 88 88 84 81 84 87 89 92 93 92 92 91 91 90 88 84 75 63 54 45 33 20 21 27 23 27 60 72 71 70 69 66 64 63 63 63 59 48
149 150 144 146 150 152 150 150 149 146 145 143 144 146 140 140 143 140 136 135 137 141 135 128 122 130 137 134 133 130 125 119 116 111 105 101 101 102 102 102 100 97 92 90 90 89 89 91 89 86 84 85 85 87 89 90 90 91 93 93 91 87 80 69 61 54 40 28 18 17 25 42 49 56 72 71 70 73 74 69 66 66 62 58 55
148 144 147 149 156 157 152 154 151 149 147 150 149 150 147 147 145 145 138 137 135 146 141 135 135 136 134 138 136 132 129 124 117 113 108 108 108 106 105 108 106 100 96 94 93 93 94 94 93 90 88 90 86 87 91 91 90 94 96 96 95 87 75 65 57 47 42 28 23 18 6 29 47 72 75 74 66 64 85 124 83 61 75 70 64
147 144 143 149 160 157 158 160 157 152 153 153 154 146 144 150 151 149 148 147 145 150 148 141 143 138 133 134 136 132 126 126 123 117 114 113 112 111 110 111 107 100 97 95 96 93 94 95 95 91 87 88 89 89 91 91 94 98 97 95 91 83 70 60 53 43 37 32 27 15 360 5 359 93 76 73 70 65 58 59 58 53 51 56 59
146 148 146 148 163 158 163 160 158 152 159 159 154 149 149 154 155 153 152 145 145 152 153 151 142 144 138 130 135 130 128 128 122 119 116 115 113 112 113 109 103 96 94 93 91 91 91 93 93 89 84 79 76 78 81 84 91 96 97 93 85 74 61 54 50 44 37 30 25 18 14 359 340 50 63 67 70 67 63 56 58 57 51 51 54
148 151 149 156 155 167 158 149 148 154 163 163 154 152 150 155 159 148 148 148 151 155 163 145 125 134 137 127 132 129 129 125 120 117 115 113 111 110 108 107 98 95 92 88 87 87 86 87 88 86 82 78 75 77 78 80 84 89 92 91 85 75 64 55 50 50 39 31 26 18 14 6 341 69 63 62 64 60 55 51 51 50 46 49 42
143 142 148 149 155 168 152 146 147 159 168 159 151 152 154 158 160 144 147 150 150 149 152 141 134 139 138 128 127 129 128 125 121 118 115 115 115 116 110 107 98 93 91 90 88 87 87 88 88 87 83 80 79 79 80 83 83 82 85 90 91 86 74 64 59 56 48 35 25 22 20 4 7 35 57 53 48 58 59 51 42 42 40 44 38
140 127 89 119 159 159 148 148 149 158 163 148 144 154 161 161 166 147 150 153 148 144 146 146 143 145 138 136 132 129 130 129 123 118 118 118 120 117 113 109 106 100 98 91 88 89 89 90 93 93 91 87 84 81 79 82 82 78 78 81 89 80 77 73 56 50 52 48 30 29 22 4 24 25 33 62 45 49 57 52 38 33 24 25 19
136 125 81 49 50 107 103 154 153 152 151 152 152 158 164 169 160 157 158 153 152 152 153 156 153 150 145 143 141 136 136 129 124 117 114 121 121 116 117 114 107 108 101 101 98 98 98 97 96 96 95 93 88 82 77 76 76 74 68 74 84 86 84 82 68 45 35 31 28 37 21 11 25 28 15 31 48 34 29 25 19 23 15 10 7
137 125 119 94 52 40 41 62 157 155 151 156 165 169 175 178 150 162 165 156 157 158 159 166 161 149 139 145 143 137 130 127 120 116 123 125 121 119 122 118 116 117 117 114 109 101 98 95 94 92 93 93 88 79 69 64 64 70 62 54 61 86 85 78 75 54 32 20 22 8 359 351 32 26 21 8 20 24 23 15 15 13 8 10 16
150 149 150 150 141 127 117 52 150 156 155 161 176 179 180 162 156 165 161 164 164 159 162 147 107 104 112 110 104 116 119 113 113 120 124 122 114 122 125 129 130 126 127 116 111 107 100 94 89 89 87 83 77 67 53 46 42 49 54 54 55 86 82 75 75 39 15 25 4 344 350 325 3 30 16 6 358 35 29 26 15 18 13 20 17
153 160 159 156 162 147 154 178 160 152 152 162 172 188 162 157 155 159 161 164 126 116 107 113 118 115 113 109 106 106 108 111 111 108 110 117 124 121 127 133 135 131 129 127 122 121 112 101 88 82 70 63 59 50 40 37 42 53 49 38 49 87 105 91 69 50 3 351 344 344 321 328 339 4 22 18 0 24 26 27 18 18 22 36 32
165 166 171 178 163 150 150 168 169 152 155 156 167 174 155 146 145 156 151 133 133 129 127 121 118 115 114 112 109 107 108 113 117 120 126 122 120 123 127 132 138 139 141 140 138 134 133 119 97 68 56 48 41 34 24 26 38 57 70 37 40 51 60 70 92 39 302 285 298 318 314 340 352 347 355 12 10 19 14 23 21 22 31 37 39
174 175 177 178 171 164 161 168 175 163 157 161 162 168 164 150 143 143 140 143 139 140 137 128 120 120 119 118 113 112 119 123 122 129 125 124 131 133 134 138 146 146 151 153 150 151 147 141 107 62 39 42 26 22 15 12 9 12 63 66 42 33 32 118 129 7 299 291 299 290 309 335 352 347 342 350 360 11 23 6 27 28 38 47 46
188 182 188 183 172 176 168 173 171 174 164 164 167 170 163 155 144 144 146 147 144 141 138 141 134 132 133 129 127 129 131 138 139 131 125 126 141 144 146 134 133 130 157 165 166 166 168 174 148 6 43 33 18 17 7 356 351 351 3 81 68 38 322 209 186 209 244 264 275 293 314 336 350 343 333 329 355 352 20 360 31 28 46 57 68
201 197 187 185 183 176 178 182 178 173 167 171 173 174 166 158 155 153 149 149 149 144 151 146 145 144 149 141 139 141 144 148 149 147 142 134 144 157 147 138 135 142 164 175 177 184 197 218 303 14 29 11 8 17 349 341 337 340 354 7 71 349 293 173 224 222 218 232 268 274 305 324 338 338 324 325 342 352 14 355 37 34 62 70 69
194 194 186 187 183 182 183 186 180 176 170 181 176 178 173 161 158 156 150 152 153 155 155 157 158 157 156 152 150 152 152 155 153 141 131 122 90 77 105 144 148 155 167 151 344 347 348 353 346 1 2 12 349 335 335 315 328 319 319 330 357 280 237 226 212 232 272 284 276 298 321 332 332 333 322 317 341 343 9 348 64 54 73 83 85
186 175 194 195 189 184 181 189 181 179 177 179 180 182 176 161 162 163 159 160 162 163 165 166 171 172 164 160 160 157 159 151 143 147 151 140 124 120 108 87 96 119 121 159 297 307 331 319 344 340 348 325 330 284 296 301 294 290 293 296 290 129 227 174 236 242 228 233 274 297 312 327 326 328 318 322 330 3 338 34 62 90 93 99 88
163 190 199 193 195 187 183 185 187 185 186 179 181 176 167 178 176 173 166 175 170 173 175 177 179 182 173 167 154 157 164 161 159 164 163 156 156 168 172 155 182 186 175 204 248 269 269 278 295 292 276 248 263 270 265 251 279 274 283 281 253 227 227 219 215 232 236 204 215 273 303 303 304 323 317 329 344 352 352 29 34 70 102 106 105
190 201 184 193 190 191 188 185 194 187 191 180 175 175 186 186 179 177 171 187 185 176 184 187 190 182 181 170 163 176 174 177 179 176 180 174 177 180 175 192 198 204 203 203 237 260 260 261 263 270 281 285 284 277 264 251 246 267 295 284 237 228 230 245 216 219 268 257 269 284 302 297 315 323 317 324 359 3 11 30 97 80 130 114 103
192 195 190 191 191 194 188 186 195 192 189 183 179 184 187 185 190 181 189 185 181 191 189 191 188 190 186 184 180 175 177 181 193 185 195 187 195 188 190 196 211 214 204 223 237 253 256 261 275 283 289 285 283 287 290 276 264 244 265 268 265 221 220 227 224 192 190 226 211 253 277 277 295 308 297 322 12 2 350 335 294 136 156 81 116
202 199 193 192 199 192 186 190 190 194 190 181 191 186 185 189 189 191 197 188 193 192 192 190 193 191 192 188 177 179 184 185 188 201 177 204 212 190 191 204 201 209 196 227 225 243 253 243 255 266 284 282 279 279 270 270 266 256 237 266 265 280 268 260 186 156 183 208 215 220 234 269 294 303 339 35 11 359 345 327 302 189 309 168 132
208 199 192 202 195 189 192 193 190 191 189 185 194 187 190 192 196 197 198 188 200 196 191 196 200 187 193 194 191 182 187 187 195 195 184 213 215 214 210 208 208 200 193 223 221 228 239 241 250 255 259 261 265 261 264 268 254 239 241 249 268 264 251 260 157 176 183 186 216 219 236 276 301 276 64 47 356 341 309 288 264 232 192 187 141
203 205 201 199 191 190 200 195 190 187 188 193 193 195 188 198 198 196 195 197 197 196 198 202 203 199 195 190 193 195 187 192 195 191 199 206 212 213 218 211 217 214 205 225 212 219 229 230 229 232 238 248 254 260 260 267 278 284 262 253 260 268 273 272 147 146 167 189 206 227 244 307 315 71 90 33 344 314 302 267 227 207 184 158 141
206 210 202 192 184 196 199 196 193 187 190 197 193 195 196 199 198 194 199 198 193 199 201 202 207 206 198 194 195 199 196 199 197 196 198 204 208 212 220 205 221 216 209 222 222 221 226 241 247 241 243 244 264 273 256 254 270 265 276 265 270 278 269 263 178 175 160 161 203 220 279 338 358 77 44 18 306 312 286 261 250 182 153 145 141
212 205 197 191 196 193 197 199 192 189 194 197 196 199 197 198 197 200 200 194 197 200 203 204 206 208 204 199 201 200 200 201 203 200 201 205 209 212 217 218 218 213 207 216 226 232 242 255 261 249 263 258 268 271 272 256 267 267 265 266 286 276 259 256 177 160 175 174 191 190 163 148 38 72 68 356 328 306 290 297 285 188 160 153 146
205 202 193 203 197 195 194 194 194 193 196 197 196 197 200 199 198 200 198 195 199 201 208 206 206 208 206 206 205 203 202 206 198 205 198 205 210 214 216 220 218 211 207 201 216 218 230 236 248 241 247 240 250 257 264 264 258 273 274 257 262 255 265 255 194 188 165 179 192 181 168 157 138 95 14 353 353 347 331 323 312 259 168 159 156
205 202 203 202 196 197 191 200 191 195 193 198 198 201 198 197 197 200 200 199 199 203 205 205 207 211 205 209 207 206 207 205 202 197 202 203 210 218 218 223 212 202 204 207 212 221 215 228 229 232 249 247 247 252 235 240 251 262 261 277 268 271 281 256 219 172 185 183 173 179 169 155 156 177 268 347 17 5 1 339 293 169 146 143 160
208 205 203 196 202 199 196 201 192 195 194 198 200 200 199 199 197 199 200 200 201 205 206 204 206 209 209 211 207 208 208 210 205 199 202 205 208 215 221 218 212 195 205 209 204 218 216 227 230 211 232 247 239 254 227 241 246 255 260 264 260 270 274 269 255 207 191 156 175 174 166 163 163 181 214 45 35 30 38 38 41 34 93 169 170
207 203 199 197 203 200 199 201 199 197 196 198 200 200 197 199 197 195 199 196 203 208 207 203 205 208 210 213 208 206 210 211 208 204 205 208 211 216 218 215 206 201 203 205 205 212 208 218 232 219 213 234 227 242 251 236 252 255 271 283 276 278 273 249 242 198 153 179 179 173 169 178 170 184 191 135 77 66 52 56 61 53 28 359 182
207 205 202 198 202 198 201 203 203 199 198 197 197 197 200 200 199 196 193 199 206 207 206 200 209 210 207 213 209 207 210 210 209 207 212 212 211 211 216 213 205 207 210 205 214 207 214 209 231 223 213 222 230 228 242 245 241 261 272 276 280 276 259 249 234 172 175 176 180 188 196 177 173 178 176 161 133 102 79 61 67 62 42 4 220
209 205 203 204 199 202 201 204 202 198 201 198 197 198 197 202 202 196 199 205 207 207 201 204 209 209 210 212 210 211 212 211 209 208 212 215 215 215 217 214 204 208 212 214 219 214 214 218 220 235 221 220 222 225 232 242 252 263 274 273 284 275 266 257 220 190 187 192 193 193 158 192 173 166 174 164 149 124 101 77 83 74 56 36 1
210 203 204 201 203 201 200 203 204 197 196 198 193 199 194 195 200 207 220 215 208 207 209 209 204 211 212 209 210 213 212 213 212 210 213 215 215 217 219 216 208 203 210 217 221 215 216 218 227 226 233 242 241 249 248 246 285 288 278 286 271 265 265 247 226 228 211 191 194 169 184 165 179 169 175 172 151 134 117 116 103 102 90 52 19
208 203 201 205 204 202 194 206 200 192 191 194 196 194 196 199 209 208 214 208 210 209 212 212 212 214 212 210 211 213 212 213 215 211 215 216 219 218 217 220 210 205 212 221 220 222 219 217 226 219 228 240 250 224 240 149 286 294 291 276 288 254 245 239 229 219 219 208 169 179 165 164 183 184 185 164 158 141 138 129 129 121 105 95 50
212 202 204 206 206 202 201 206 189 195 199 197 195 197 201 199 197 208 210 210 208 207 218 214 216 217 215 213 213 213 213 213 210 212 215 213 218 219 217 219 210 214 219 224 226 225 223 220 213 239 213 224 240 203 203 126 244 227 273 315 319 301 268 236 234 230 205 195 185 177 173 180 184 184 165 163 157 149 146 145 142 134 136 137 126
207 203 207 204 204 202 208 201 197 196 201 198 193 204 201 202 198 206 201 214 218 215 221 217 211 218 219 217 216 216 215 217 212 210 214 215 219 219 220 217 216 211 219 226 222 227 217 219 208 217 230 229 239 215 190 187 225 147 141 346 286 334 329 333 281 240 202 184 170 186 181 188 190 175 167 160 169 169 169 164 158 161 166 161 169
211 212 210 207 205 207 205 202 201 199 199 200 202 202 197 199 207 204 206 202 203 207 214 218 213 216 224 218 222 218 215 218 214 213 215 217 215 219 218 216 219 209 215 223 221 226 219 220 215 220 215 241 215 239 193 198 183 134 276 218 227 123 302 277 274 285 204 185 177 189 172 194 176 150 156 186 188 178 183 174 179 185 183 178 179
211 209 205 207 207 207 206 201 200 200 202 198 199 190 181 189 193 173 152 219 276 186 208 229 221 219 224 218 223 214 218 219 215 215 213 218 217 218 217 218 217 213 210 222 224 223 221 220 215 217 211 222 238 231 229 191 206 206 177 99 3 307 230 253 7 279 66 152 219 178 184 177 176 184 190 196 173 190 182 188 197 195 195 191 183
213 211 206 208 207 208 205 203 202 201 202 199 191 183 189 188 179 193 203 205 216 208 215 219 212 214 220 224 223 209 215 220 217 217 216 215 219 218 219 219 219 217 214 223 229 228 225 219 214 216 225 221 233 231 241 225 215 216 224 221 190 218 191 241 104 276 317 229 161 181 189 193 175 188 205 188 190 195 191 198 195 200 198 198 192
216 207 207 210 211 210 203 200 201 203 200 193 184 186 191 197 199 203 207 207 216 225 225 225 218 223 223 222 220 205 211 216 221 218 218 216 219 220 219 221 223 222 219 224 229 227 227 223 209 212 222 217 211 238 231 221 219 246 237 245 264 233 170 149 234 82 314 305 142 170 189 170 170 185 203 213 205 195 204 201 201 202 201 197 192
211 202 208 207 206 207 202 202 203 201 194 187 184 189 196 200 204 210 211 216 216 228 213 222 217 203 210 220 214 212 205 210 216 217 217 215 214 219 217 222 223 224 216 223 229 228 227 223 207 214 217 211 210 224 236 208 208 225 202 232 239 230 236 293 196 221 232 240 254 257 80 176 171 199 211 215 207 205 201 203 204 202 200 200 192
206 204 206 205 205 205 204 201 203 199 194 186 188 194 200 200 203 206 217 224 225 232 201 204 209 202 218 210 210 210 204 206 210 213 213 216 210 213 215 221 221 223 214 226 227 221 220 217 213 209 212 215 211 219 225 226 209 227 176 225 228 232 229 226 230 206 212 223 244 177 209 351 220 224 220 216 214 211 208 206 203 195 193 195 194
209 207 207 205 206 202 201 199 203 198 195 191 191 195 199 198 202 209 217 225 220 224 190 215 212 198 222 214 208 206 203 205 207 210 212 211 212 209 215 220 222 222 215 224 225 222 220 219 219 217 216 221 217 215 221 226 219 220 213 214 212 229 237 248 230 220 269 214 234 207 193 183 203 229 204 214 217 215 215 214 202 197 200 197 193
210 205 208 206 202 199 199 201 204 198 193 194 190 195 196 198 208 211 216 224 218 210 214 227 212 208 221 215 209 209 200 208 197 210 211 207 212 210 214 221 222 221 220 222 224 223 221 222 224 221 220 220 222 221 223 228 226 224 220 219 224 216 218 220 222 211 217 222 251 253 210 199 208 223 219 212 210 215 213 207 201 207 205 198 193